Weather History for Rawlins, WY

Change the Weather History Date:

Thursday, April 4, 2013

  Actual Average Record
Temperature  
Mean Temperature 44 °F 37 °F  
Max Temperature 63 °F 50 °F 70 °F (2000)
Min Temperature 25 °F 24 °F 5 °F (2009)
Degree Days  
Heating Degree Days 21 28  
Month to date heating degree days 99 113  
Since 1 July heating degree days 6692 7085  
Cooling Degree Days 0 0  
Month to date cooling degree days 0 0  
Year to date cooling degree days 0 0  
Moisture  
Dew Point 24 °F    
Average Humidity 55    
Maximum Humidity 88    
Minimum Humidity 22    
Precipitation  
Precipitation 0.00 in 0.03 in 0.26 in (1965)
Month to date precipitation T 0.12  
Year to date precipitation 0.68 1.58  
Sea Level Pressure  
Sea Level Pressure 30.00 in    
Wind  
Wind Speed 11 mph (SW)    
Max Wind Speed 24 mph    
Max Gust Speed 33 mph    
Visibility 10 miles    
Events      
T = Trace of Precipitation, MM = Missing Value Source: NWS Daily Summary

Daily Weather History Graph

Daily Weather History Graph

Search for Another Location

Airport:

Trip Planner

Search our weather history database for the weather conditions in past years. The results will help you decide how hot, cold, wet, or windy it might be!

Date:

Astronomy

Apr. 04, 2013 Rise Set
Actual Time 6:46 AM MDT 7:37 PM MDT
Civil Twilight 6:17 AM MDT 8:06 PM MDT
Nautical Twilight 5:44 AM MDT 8:39 PM MDT
Astronomical Twilight 5:09 AM MDT 9:14 PM MDT
Moon 3:19 AM MDT (4/4) 1:54 PM MDT (4/4)
Length of Visible Light 13h 48m
Length of Day
12h 51m
Waning Crescent, 33% of the Moon is Illuminated
Apr 4
Waning Crescent
Apr 10
New
Apr 18
First Quarter
Apr 25
Full
May 2
Last Quarter

Hourly Weather History & Observations

Time (MDT) Temp. Windchill Dew Point Humidity Pressure Visibility Wind Dir Wind Speed Gust Speed Precip Events Conditions
12:53 AM 28.9 °F 23.9 °F 25.0 °F 85% 30.10 in 10.0 mi North 4.6 mph - N/A   Clear
1:53 AM 28.0 °F 24.2 °F 25.0 °F 88% 30.09 in 10.0 mi North 3.5 mph - N/A   Clear
2:53 AM 25.0 °F - 21.9 °F 88% 30.10 in 10.0 mi Calm Calm - N/A   Clear
3:53 AM 30.0 °F 25.2 °F 24.1 °F 79% 30.07 in 10.0 mi SSE 4.6 mph - N/A   Clear
4:53 AM 33.1 °F 28.7 °F 25.0 °F 72% 30.09 in 10.0 mi SW 4.6 mph - N/A   Clear
5:53 AM 34.0 °F - 25.0 °F 70% 30.09 in 10.0 mi Calm Calm - N/A   Clear
6:53 AM 34.0 °F - 25.0 °F 70% 30.08 in 10.0 mi Calm Calm - N/A   Clear
7:53 AM 39.0 °F 32.3 °F 28.0 °F 65% 30.10 in 10.0 mi WSW 10.4 mph - N/A   Clear
8:53 AM 45.0 °F 39.3 °F 28.9 °F 53% 30.09 in 10.0 mi WSW 11.5 mph - N/A   Clear
9:53 AM 46.9 °F - 28.0 °F 48% 30.09 in 10.0 mi SW 16.1 mph - N/A   Clear
10:53 AM 54.0 °F - 28.0 °F 37% 30.06 in 10.0 mi WSW 17.3 mph 25.3 mph N/A   Clear
11:53 AM 57.0 °F - 24.1 °F 28% 30.06 in 10.0 mi SW 19.6 mph 28.8 mph N/A   Partly Cloudy
12:53 PM 57.9 °F - 24.1 °F 27% 30.04 in 10.0 mi WSW 15.0 mph 29.9 mph N/A   Clear
1:53 PM 59.0 °F - 23.0 °F 25% 30.00 in 10.0 mi SW 12.7 mph 26.5 mph N/A   Scattered Clouds
2:53 PM 61.0 °F - 23.0 °F 23% 30.00 in 10.0 mi WSW 15.0 mph 27.6 mph N/A   Scattered Clouds
3:53 PM 61.0 °F - 21.0 °F 21% 29.95 in 10.0 mi SW 15.0 mph 26.5 mph N/A   Mostly Cloudy
4:53 PM 60.1 °F - 21.0 °F 22% 29.92 in 10.0 mi WSW 16.1 mph 32.2 mph N/A   Partly Cloudy
5:53 PM 60.1 °F - 21.9 °F 23% 29.92 in 10.0 mi SW 17.3 mph 25.3 mph N/A   Clear
6:53 PM 57.0 °F - 21.0 °F 25% 29.92 in 10.0 mi SSW 16.1 mph 23.0 mph N/A   Partly Cloudy
7:53 PM 53.1 °F - 21.9 °F 30% 29.91 in 10.0 mi SSW 6.9 mph - N/A   Clear
8:53 PM 52.0 °F - 21.9 °F 31% 29.88 in 10.0 mi SW 11.5 mph - N/A   Clear
9:53 PM 51.1 °F - 21.9 °F 32% 29.88 in 10.0 mi SW 9.2 mph - N/A   Clear
10:53 PM 51.1 °F - 21.0 °F 31% 29.84 in 10.0 mi West 12.7 mph - N/A   Clear
11:53 PM 50.0 °F - 21.0 °F 32% 29.83 in 10.0 mi WSW 11.5 mph - N/A   Partly Cloudy